Total_Precipitation_Accumulation
0.42 0.62 0.91 1.24 1.60 2.23 2.91 3.13 2.73 2.32 1.92 1.64 1.38 1.13 0.92 0.83 0.72 0.53 0.43 0.39 0.35 0.34 0.40 0.27 0.28 0.42 0.43 0.37 0.40 0.43 0.35 0.24 0.40 0.42 0.19 0.07 0.04 0.06 0.05 0.04 0.03 0.04 0.06
0.63 0.92 1.30 1.53 1.78 2.19 2.66 2.65 2.21 1.77 1.30 1.01 0.91 0.79 0.65 0.55 0.42 0.33 0.30 0.25 0.25 0.27 0.32 0.25 0.18 0.23 0.24 0.18 0.19 0.29 0.30 0.25 0.39 0.44 0.31 0.12 0.06 0.04 0.03 0.03 0.03 0.04 0.08
0.68 1.13 1.63 1.90 2.01 2.03 1.92 1.77 1.34 0.86 0.64 0.48 0.46 0.41 0.37 0.36 0.27 0.20 0.18 0.16 0.16 0.15 0.15 0.14 0.13 0.18 0.25 0.23 0.23 0.27 0.29 0.23 0.23 0.32 0.36 0.22 0.08 0.05 0.06 0.08 0.08 0.10 0.16
0.70 1.24 1.57 1.62 1.62 1.51 1.17 0.88 0.68 0.44 0.31 0.29 0.31 0.32 0.28 0.28 0.23 0.19 0.18 0.16 0.14 0.13 0.13 0.11 0.09 0.12 0.18 0.18 0.15 0.17 0.20 0.20 0.15 0.18 0.24 0.25 0.22 0.18 0.09 0.09 0.13 0.17 0.24
0.51 0.76 0.86 0.93 0.94 0.83 0.67 0.53 0.45 0.34 0.34 0.34 0.37 0.38 0.28 0.22 0.20 0.19 0.17 0.17 0.19 0.18 0.17 0.15 0.12 0.10 0.11 0.10 0.10 0.10 0.12 0.13 0.11 0.11 0.16 0.27 0.33 0.35 0.26 0.15 0.14 0.17 0.19
0.36 0.48 0.46 0.44 0.42 0.34 0.35 0.36 0.40 0.44 0.41 0.34 0.31 0.31 0.26 0.22 0.20 0.17 0.17 0.18 0.20 0.22 0.23 0.22 0.20 0.19 0.16 0.13 0.12 0.12 0.12 0.13 0.13 0.14 0.17 0.23 0.31 0.36 0.39 0.32 0.24 0.23 0.24
0.35 0.39 0.43 0.41 0.31 0.24 0.25 0.24 0.22 0.25 0.29 0.27 0.26 0.26 0.26 0.24 0.22 0.20 0.16 0.16 0.18 0.21 0.24 0.27 0.28 0.29 0.25 0.21 0.19 0.17 0.14 0.15 0.17 0.18 0.19 0.23 0.29 0.37 0.43 0.40 0.34 0.36 0.39
0.25 0.25 0.25 0.24 0.19 0.14 0.10 0.09 0.10 0.11 0.12 0.13 0.15 0.18 0.21 0.20 0.20 0.23 0.19 0.17 0.20 0.24 0.27 0.27 0.27 0.29 0.29 0.28 0.25 0.19 0.16 0.20 0.24 0.25 0.27 0.29 0.32 0.46 0.49 0.47 0.49 0.46 0.53
0.09 0.09 0.08 0.07 0.06 0.05 0.04 0.04 0.05 0.05 0.05 0.06 0.08 0.11 0.16 0.18 0.18 0.20 0.19 0.19 0.24 0.26 0.28 0.28 0.29 0.29 0.29 0.30 0.29 0.26 0.26 0.29 0.28 0.31 0.39 0.42 0.44 0.50 0.54 0.56 0.60 0.61 0.58
0.03 0.03 0.03 0.03 0.02 0.02 0.02 0.02 0.02 0.03 0.03 0.04 0.05 0.07 0.09 0.13 0.15 0.14 0.17 0.21 0.20 0.21 0.26 0.32 0.33 0.32 0.32 0.37 0.41 0.38 0.33 0.36 0.41 0.48 0.52 0.53 0.56 0.58 0.56 0.57 0.61 0.62 0.64
0.01 0.01 0.01 0.01 0.01 0.01 0.01 0.01 0.02 0.02 0.02 0.02 0.03 0.04 0.06 0.08 0.10 0.13 0.16 0.18 0.18 0.20 0.23 0.29 0.33 0.34 0.40 0.57 0.71 0.68 0.56 0.55 0.58 0.60 0.64 0.67 0.69 0.67 0.58 0.56 0.55 0.57 0.62
0.00 0.00 0.00 0.00 0.00 0.01 0.01 0.01 0.02 0.02 0.02 0.02 0.02 0.02 0.04 0.06 0.07 0.09 0.12 0.16 0.17 0.17 0.16 0.19 0.23 0.26 0.32 0.47 0.77 0.92 0.92 0.84 0.70 0.67 0.75 0.75 0.68 0.59 0.53 0.51 0.51 0.53 0.58
0.00 0.00 0.00 0.00 0.00 0.01 0.01 0.01 0.01 0.01 0.01 0.01 0.02 0.02 0.02 0.03 0.04 0.06 0.09 0.12 0.15 0.16 0.16 0.17 0.21 0.26 0.27 0.34 0.54 0.75 0.86 0.86 0.77 0.73 0.69 0.65 0.62 0.54 0.47 0.42 0.40 0.42 0.52
0.00 0.00 0.00 0.00 0.00 0.00 0.00 0.00 0.00 0.00 0.00 0.00 0.01 0.01 0.01 0.02 0.04 0.05 0.07 0.10 0.12 0.14 0.17 0.21 0.25 0.26 0.23 0.25 0.37 0.52 0.61 0.66 0.68 0.68 0.63 0.56 0.49 0.49 0.46 0.39 0.34 0.34 0.35
0.00 0.00 0.00 0.00 0.00 0.00 0.00 0.00 0.01 0.01 0.01 0.02 0.04 0.03 0.03 0.03 0.03 0.04 0.06 0.07 0.08 0.09 0.14 0.21 0.23 0.21 0.19 0.25 0.37 0.40 0.36 0.39 0.45 0.46 0.43 0.44 0.48 0.45 0.44 0.37 0.31 0.29 0.27
0.02 0.02 0.02 0.02 0.03 0.02 0.03 0.03 0.03 0.04 0.04 0.07 0.09 0.07 0.07 0.07 0.06 0.07 0.07 0.07 0.08 0.10 0.12 0.14 0.18 0.17 0.16 0.23 0.26 0.23 0.21 0.22 0.25 0.28 0.25 0.23 0.29 0.35 0.36 0.30 0.26 0.24 0.22
0.08 0.07 0.07 0.05 0.04 0.03 0.02 0.02 0.02 0.02 0.03 0.05 0.10 0.10 0.10 0.09 0.07 0.06 0.06 0.06 0.08 0.11 0.13 0.14 0.16 0.17 0.18 0.16 0.13 0.11 0.10 0.12 0.16 0.18 0.18 0.15 0.15 0.21 0.22 0.18 0.14 0.14 0.15
0.07 0.04 0.03 0.01 0.01 0.00 0.01 0.01 0.01 0.02 0.02 0.03 0.09 0.14 0.15 0.13 0.10 0.10 0.10 0.10 0.11 0.12 0.14 0.16 0.18 0.21 0.23 0.18 0.12 0.09 0.08 0.09 0.13 0.14 0.13 0.12 0.13 0.14 0.15 0.15 0.12 0.09 0.08
0.02 0.01 0.01 0.01 0.01 0.01 0.01 0.02 0.03 0.03 0.04 0.06 0.09 0.14 0.20 0.20 0.18 0.17 0.18 0.18 0.19 0.18 0.17 0.17 0.20 0.24 0.27 0.23 0.17 0.13 0.10 0.13 0.14 0.15 0.14 0.12 0.09 0.10 0.11 0.12 0.11 0.08 0.07
0.00 0.01 0.01 0.01 0.02 0.02 0.03 0.04 0.05 0.07 0.09 0.10 0.14 0.19 0.25 0.27 0.26 0.25 0.26 0.26 0.27 0.25 0.22 0.19 0.20 0.25 0.33 0.30 0.22 0.17 0.14 0.18 0.18 0.18 0.17 0.15 0.11 0.09 0.08 0.10 0.09 0.07 0.04
0.00 0.01 0.01 0.02 0.04 0.06 0.10 0.14 0.16 0.18 0.18 0.19 0.22 0.26 0.30 0.34 0.32 0.31 0.31 0.31 0.32 0.32 0.31 0.28 0.26 0.27 0.36 0.37 0.27 0.23 0.21 0.24 0.26 0.22 0.20 0.17 0.14 0.11 0.09 0.08 0.09 0.06 0.04
0.00 0.01 0.02 0.02 0.04 0.09 0.16 0.22 0.23 0.23 0.25 0.29 0.29 0.32 0.37 0.37 0.35 0.41 0.46 0.48 0.47 0.44 0.40 0.43 0.40 0.35 0.38 0.39 0.32 0.26 0.24 0.30 0.33 0.31 0.25 0.22 0.19 0.14 0.13 0.10 0.09 0.07 0.05
0.00 0.01 0.02 0.03 0.05 0.08 0.13 0.19 0.21 0.22 0.25 0.28 0.30 0.34 0.42 0.45 0.46 0.48 0.51 0.58 0.61 0.57 0.52 0.53 0.55 0.50 0.46 0.46 0.40 0.32 0.26 0.32 0.40 0.41 0.39 0.32 0.27 0.23 0.18 0.17 0.14 0.09 0.05
0.00 0.01 0.03 0.06 0.06 0.07 0.10 0.15 0.21 0.28 0.32 0.33 0.34 0.36 0.42 0.47 0.54 0.60 0.58 0.59 0.62 0.64 0.64 0.60 0.55 0.53 0.52 0.54 0.46 0.37 0.30 0.34 0.47 0.51 0.50 0.44 0.39 0.35 0.29 0.26 0.22 0.14 0.08
0.01 0.04 0.07 0.10 0.09 0.09 0.10 0.12 0.18 0.30 0.37 0.36 0.35 0.39 0.42 0.47 0.57 0.66 0.66 0.62 0.63 0.68 0.66 0.57 0.49 0.47 0.47 0.55 0.55 0.41 0.36 0.43 0.54 0.62 0.64 0.59 0.52 0.48 0.41 0.33 0.28 0.21 0.15
0.06 0.10 0.12 0.13 0.13 0.12 0.13 0.14 0.19 0.31 0.40 0.39 0.37 0.39 0.42 0.47 0.54 0.63 0.66 0.56 0.50 0.51 0.51 0.45 0.37 0.32 0.34 0.47 0.54 0.50 0.45 0.50 0.60 0.71 0.73 0.64 0.55 0.50 0.44 0.36 0.31 0.27 0.20